FW9926 Weather Reports


Display with metric or nautical units.
time (UTC)temp
F
wind
direction
speed
MPH
gust
MPH
rain 1hr
in
rain 24hr
in
rain mn
in
humidity
%
barometer
mb
20260506044554 38 343 2.0 4.0 0.00 0.24 0.23 97 1018.1
20260506043054 38 327 2.0 3.0 0.00 0.24 0.23 97 1017.9
20260506041549 38 0 0.0 0.0 0.00 0.24 0.23 97 1017.8
20260506040053 38 0 0.0 0.0 0.00 0.24 0.23 97 1017.8
20260506034550 38 0 0.0 0.0 0.00 0.24 0.23 97 1017.6
20260506033050 38 0 0.0 0.0 0.00 0.24 0.23 97 1017.4
20260506031551 38 0 0.0 4.0 0.00 0.24 0.23 97 1017.2
20260506030053 38 0 0.0 4.0 0.00 0.24 0.23 96 1017.2
20260506024558 38 277 1.0 4.0 0.00 0.24 0.23 96 1016.9
20260506023050 38 0 1.0 4.0 0.00 0.24 0.23 96 1017.0
20260506021549 38 0 0.0 4.0 0.00 0.24 0.23 96 1016.7
20260506020055 38 281 1.0 4.0 0.00 0.24 0.23 96 1016.6
20260506014555 39 0 1.0 7.0 0.00 0.24 0.23 95 1016.3
20260506013050 39 0 2.0 8.0 0.00 0.24 0.23 94 1016.2
20260506011553 40 0 1.0 8.0 0.00 0.24 0.23 94 1016.1
20260506010050 40 219 1.0 6.0 0.00 0.24 0.23 94 1016.1
20260506004551 40 269 2.0 6.0 0.00 0.24 0.23 93 1016.1
20260506003057 41 276 2.0 7.0 0.00 0.24 0.23 91 1016.2
20260506001552 41 273 2.0 10.0 0.00 0.24 0.23 92 1016.1
20260506000052 40 180 0.0 6.0 0.00 0.24 0.23 92 1016.2
20260505234554 41 0 1.0 7.0 0.00 0.24 0.23 90 1016.2
20260505233045 42 0 1.0 8.0 0.00 0.24 0.23 90 1016.2
20260505231600 43 267 2.0 6.0 0.00 0.24 0.23 91 1016.2
20260505230058 40 168 1.0 6.0 0.00 0.24 0.23 94 1016.2
20260505224548 40 283 2.0 7.0 0.00 0.24 0.23 93 1016.2
20260505223050 40 290 2.0 7.0 0.00 0.24 0.23 92 1016.4
20260505221549 41 302 2.0 4.0 0.00 0.24 0.23 91 1016.4
20260505220051 40 0 1.0 6.0 0.00 0.24 0.23 91 1016.4
20260505214550 41 322 2.0 8.0 0.00 0.24 0.23 91 1016.6
20260505213056 42 295 2.0 7.0 0.00 0.24 0.23 90 1016.7
20260505211552 42 302 1.0 6.0 0.00 0.24 0.23 93 1016.8
20260505210046 42 192 0.0 5.0 0.00 0.24 0.23 95 1016.8
20260505204550 41 263 0.0 5.0 0.00 0.24 0.23 95 1016.8
20260505203104 41 163 0.0 8.0 0.01 0.24 0.23 95 1016.6
20260505201554 42 0 0.0 6.0 0.01 0.24 0.23 96 1016.8
20260505200055 40 0 1.0 5.0 0.01 0.24 0.23 97 1016.7
20260505194551 41 0 0.0 6.0 0.01 0.24 0.23 98 1016.9
20260505193050 39 0 1.0 8.0 0.00 0.23 0.22 98 1016.8
20260505191609 40 10 2.0 8.0 0.00 0.23 0.22 98 1017.0
20260505190054 39 0 0.0 4.0 0.00 0.23 0.22 98 1016.9
20260505184557 38 0 0.0 8.0 0.00 0.23 0.22 98 1016.8
20260505183056 38 281 2.0 7.0 0.00 0.23 0.22 98 1016.6
20260505181550 38 288 2.0 6.0 0.00 0.23 0.22 98 1016.6
20260505180105 38 0 1.0 7.0 0.00 0.23 0.22 98 1016.4
20260505174601 38 0 0.0 8.0 0.00 0.23 0.22 98 1016.6
20260505173049 38 283 0.0 9.0 0.00 0.23 0.22 98 1016.3
20260505171551 38 309 1.0 7.0 0.00 0.23 0.22 98 1016.0
20260505170046 37 0 2.0 6.0 0.00 0.23 0.22 98 1015.8
20260505164552 37 302 2.0 7.0 0.00 0.23 0.22 98 1015.8
20260505163050 37 315 2.0 7.0 0.01 0.23 0.22 98 1015.6
20260505161554 37 17 3.0 7.0 0.01 0.23 0.22 98 1015.5
20260505153050 38 286 1.0 7.0 0.01 0.22 0.21 98 1015.1
20260505151553 38 273 0.0 7.0 0.01 0.22 0.21 98 1014.9
20260505124552 36 0 0.0 4.0 0.04 0.19 0.18 98 1014.0
20260505123053 35 306 0.0 4.0 0.05 0.19 0.18 97 1014.1
20260505121553 36 0 0.0 8.0 0.06 0.19 0.18 97 1014.2
20260505120053 37 281 2.0 7.0 0.08 0.19 0.18 97 1014.3
20260505114556 38 0 0.0 4.0 0.06 0.15 0.14 98 1014.2
20260505113059 38 300 0.0 7.0 0.07 0.14 0.13 98 1014.3
20260505111552 38 296 2.0 7.0 0.06 0.13 0.12 98 1014.5
20260505101607 37 0 0.0 4.0 0.02 0.07 0.06 97 1014.2
20260505094551 38 292 1.0 6.0 0.01 0.06 0.05 97 1014.3
20260505093102 38 0 0.0 0.0 0.02 0.06 0.05 97 1014.6
20260505091554 38 0 0.0 0.0 0.02 0.05 0.04 97 1014.7
20260505090052 37 0 0.0 2.0 0.02 0.05 0.04 97 1015.0
20260505084550 37 0 0.0 3.0 0.02 0.05 0.04 97 1015.2
20260505083051 37 279 0.0 7.0 0.01 0.04 0.03 97 1015.4
20260505081605 37 276 2.0 6.0 0.00 0.03 0.02 97 1015.6
20260505074551 37 285 1.0 8.0 0.02 0.03 0.02 97 1015.8
20260505073105 37 274 2.0 6.0 0.02 0.03 0.02 97 1015.8
20260505071557 38 302 2.0 7.0 0.03 0.03 0.02 97 1016.0
20260505070058 38 304 1.0 4.0 0.01 0.01 0.00 97 1015.8
20260505064552 38 0 1.0 6.0 0.01 0.01 0.01 97 1015.8
20260505063100 37 280 2.0 7.0 0.01 0.01 0.01 97 1016.0
20260505061552 38 0 1.0 6.0 0.00 0.00 0.00 97 1016.3
20260505060055 37 307 2.0 4.0 0.00 0.00 0.00 97 1016.3
20260505054554 37 296 2.0 7.0 0.00 0.00 0.00 97 1016.5